Time,TemperatureF,DewpointF,PressureIn,WindDirection,WindDirectionDegrees,WindSpeedMPH,WindSpeedGustMPH,Humidity,HourlyPrecipIn,Conditions,Clouds,dailyrainin,SolarRadiationWatts/m^2,SoftwareType,DateUTC
2013-02-08 00:21:00,24.0,15.0,29.85,East,82,5.0,7.0,68,-99.99,,,-99.99,0.000000,,2013-02-08 08:21:00,
2013-02-08 00:32:00,24.0,15.0,29.85,East,82,5.0,7.0,68,-99.99,,,-99.99,0.000000,,2013-02-08 08:32:00,
2013-02-08 00:40:00,23.0,15.0,29.84,North,357,3.0,5.0,72,-99.99,,,-99.99,0.000000,,2013-02-08 08:40:00,
2013-02-08 01:21:00,23.0,15.0,29.84,North,357,3.0,5.0,72,-99.99,,,-99.99,0.000000,,2013-02-08 09:21:00,
2013-02-08 01:31:00,23.0,15.0,29.84,North,357,3.0,5.0,72,-99.99,,,-99.99,0.000000,,2013-02-08 09:31:00,
2013-02-08 01:40:00,20.0,15.0,29.84,SSW,204,1.0,4.0,81,-99.99,,,-99.99,0.000000,,2013-02-08 09:40:00,
2013-02-08 02:22:00,20.0,15.0,29.84,SSW,204,1.0,4.0,81,-99.99,,,-99.99,0.000000,,2013-02-08 10:22:00,
2013-02-08 02:31:00,20.0,15.0,29.84,SSW,204,1.0,4.0,81,-99.99,,,-99.99,0.000000,,2013-02-08 10:31:00,
2013-02-08 02:40:00,20.0,16.0,29.82,East,94,6.0,9.0,85,-99.99,,,-99.99,0.000000,,2013-02-08 10:40:00,
2013-02-08 03:21:00,20.0,16.0,29.82,East,94,6.0,9.0,85,-99.99,,,-99.99,0.000000,,2013-02-08 11:21:00,
2013-02-08 03:32:00,20.0,16.0,29.82,East,94,6.0,9.0,85,-99.99,,,-99.99,0.000000,,2013-02-08 11:32:00,
2013-02-08 03:40:00,19.0,15.0,29.81,SSE,158,3.0,4.0,85,-99.99,,,-99.99,0.000000,,2013-02-08 11:40:00,
2013-02-08 04:22:00,19.0,15.0,29.81,SSE,158,3.0,4.0,85,-99.99,,,-99.99,0.000000,,2013-02-08 12:22:00,
2013-02-08 04:32:00,19.0,15.0,29.81,SSE,158,3.0,4.0,85,-99.99,,,-99.99,0.000000,,2013-02-08 12:32:00,
2013-02-08 04:40:00,19.0,16.0,29.81,South,181,2.0,5.0,87,-99.99,,,-99.99,0.000000,,2013-02-08 12:40:00,
2013-02-08 05:21:00,19.0,16.0,29.81,South,181,2.0,5.0,87,-99.99,,,-99.99,0.000000,,2013-02-08 13:21:00,
2013-02-08 05:32:00,19.0,16.0,29.81,South,181,2.0,5.0,87,-99.99,,,-99.99,0.000000,,2013-02-08 13:32:00,
2013-02-08 05:40:00,18.0,14.0,29.81,West,280,3.0,5.0,86,-99.99,,,-99.99,0.000000,,2013-02-08 13:40:00,
2013-02-08 06:21:00,18.0,14.0,29.81,West,280,3.0,5.0,86,-99.99,,,-99.99,0.000000,,2013-02-08 14:21:00,
2013-02-08 06:32:00,18.0,14.0,29.81,West,280,3.0,5.0,86,-99.99,,,-99.99,0.000000,,2013-02-08 14:32:00,
2013-02-08 06:40:00,19.0,16.0,29.82,North,358,2.0,4.0,89,-99.99,,,-99.99,0.000000,,2013-02-08 14:40:00,
2013-02-08 07:21:00,19.0,16.0,29.82,North,358,2.0,4.0,89,-99.99,,,-99.99,0.000000,,2013-02-08 15:21:00,
2013-02-08 07:32:00,19.0,16.0,29.82,North,358,2.0,4.0,89,-99.99,,,-99.99,0.000000,,2013-02-08 15:32:00,
2013-02-08 07:40:00,21.0,17.0,29.83,ESE,122,2.0,2.0,86,-99.99,,,-99.99,30.000000,,2013-02-08 15:40:00,
2013-02-08 08:21:00,21.0,17.0,29.83,ESE,122,2.0,2.0,86,-99.99,,,-99.99,30.000000,,2013-02-08 16:21:00,
2013-02-08 08:32:00,21.0,17.0,29.83,ESE,122,2.0,2.0,86,-99.99,,,-99.99,30.000000,,2013-02-08 16:32:00,
2013-02-08 08:40:00,24.0,18.0,29.83,SE,140,3.0,5.0,77,-99.99,,,-99.99,130.000000,,2013-02-08 16:40:00,
2013-02-08 09:22:00,24.0,18.0,29.83,SE,140,3.0,5.0,77,-99.99,,,-99.99,130.000000,,2013-02-08 17:22:00,
2013-02-08 09:32:00,24.0,18.0,29.83,SE,140,3.0,5.0,77,-99.99,,,-99.99,130.000000,,2013-02-08 17:32:00,
2013-02-08 09:40:00,29.0,19.0,29.83,South,184,1.0,3.0,65,-99.99,,,-99.99,340.000000,,2013-02-08 17:40:00,
2013-02-08 10:24:00,29.0,19.0,29.83,South,184,1.0,3.0,65,-99.99,,,-99.99,340.000000,,2013-02-08 18:24:00,
2013-02-08 10:33:00,29.0,19.0,29.83,South,184,1.0,3.0,65,-99.99,,,-99.99,340.000000,,2013-02-08 18:33:00,
2013-02-08 10:40:00,32.0,20.0,29.83,SSE,165,2.0,5.0,61,-99.99,,,-99.99,530.000000,,2013-02-08 18:40:00,
2013-02-08 11:22:00,32.0,20.0,29.83,SSE,165,2.0,5.0,61,-99.99,,,-99.99,530.000000,,2013-02-08 19:22:00,
2013-02-08 11:32:00,32.0,20.0,29.83,SSE,165,2.0,5.0,61,-99.99,,,-99.99,530.000000,,2013-02-08 19:32:00,
2013-02-08 11:40:00,35.0,19.0,29.80,NNE,19,10.0,17.0,51,-99.99,,,-99.99,700.000000,,2013-02-08 19:40:00,
2013-02-08 12:32:00,35.0,19.0,29.80,NNE,19,10.0,17.0,51,-99.99,,,-99.99,700.000000,,2013-02-08 20:32:00,
2013-02-08 12:40:00,35.0,17.0,29.79,North,10,12.0,19.0,47,-99.99,,,-99.99,480.000000,,2013-02-08 20:40:00,
2013-02-08 13:32:00,35.0,17.0,29.79,North,10,12.0,19.0,47,-99.99,,,-99.99,480.000000,,2013-02-08 21:32:00,
2013-02-08 13:40:00,35.0,17.0,29.78,NNE,14,12.0,17.0,47,-99.99,,,-99.99,410.000000,,2013-02-08 21:40:00,
2013-02-08 14:32:00,35.0,17.0,29.78,NNE,14,12.0,17.0,47,-99.99,,,-99.99,410.000000,,2013-02-08 22:32:00,
2013-02-08 14:40:00,35.0,18.0,29.78,North,6,15.0,22.0,48,-99.99,,,-99.99,310.000000,,2013-02-08 22:40:00,
2013-02-08 15:31:00,35.0,18.0,29.78,North,6,15.0,22.0,48,-99.99,,,-99.99,310.000000,,2013-02-08 23:31:00,
2013-02-08 15:40:00,34.0,18.0,29.80,North,11,13.0,18.0,50,-99.99,,,-99.99,170.000000,,2013-02-08 23:40:00,
2013-02-08 16:21:00,34.0,18.0,29.80,North,11,13.0,18.0,50,-99.99,,,-99.99,170.000000,,2013-02-09 00:21:00,
2013-02-08 16:32:00,34.0,18.0,29.80,North,11,13.0,18.0,50,-99.99,,,-99.99,170.000000,,2013-02-09 00:32:00,
2013-02-08 16:40:00,34.0,19.0,29.81,NNE,17,13.0,18.0,54,-99.99,,,-99.99,120.000000,,2013-02-09 00:40:00,
2013-02-08 17:21:00,34.0,19.0,29.81,NNE,17,13.0,18.0,54,-99.99,,,-99.99,120.000000,,2013-02-09 01:21:00,
2013-02-08 17:31:00,34.0,19.0,29.81,NNE,17,13.0,18.0,54,-99.99,,,-99.99,120.000000,,2013-02-09 01:31:00,
2013-02-08 17:40:00,32.0,19.0,29.82,NNE,18,11.0,16.0,58,-99.99,,,-99.99,10.000000,,2013-02-09 01:40:00,
2013-02-08 18:21:00,32.0,19.0,29.82,NNE,18,11.0,16.0,58,-99.99,,,-99.99,10.000000,,2013-02-09 02:21:00,
2013-02-08 18:32:00,32.0,19.0,29.82,NNE,18,11.0,16.0,58,-99.99,,,-99.99,10.000000,,2013-02-09 02:32:00,
2013-02-08 18:40:00,31.0,19.0,29.84,NNE,18,10.0,14.0,61,-99.99,,,-99.99,0.000000,,2013-02-09 02:40:00,
2013-02-08 19:21:00,31.0,19.0,29.84,NNE,18,10.0,14.0,61,-99.99,,,-99.99,0.000000,,2013-02-09 03:21:00,
2013-02-08 19:32:00,31.0,19.0,29.84,NNE,18,10.0,14.0,61,-99.99,,,-99.99,0.000000,,2013-02-09 03:32:00,
2013-02-08 19:40:00,29.0,18.0,29.85,NNE,25,6.0,9.0,63,-99.99,,,-99.99,0.000000,,2013-02-09 03:40:00,
2013-02-08 20:22:00,29.0,18.0,29.85,NNE,25,6.0,9.0,63,-99.99,,,-99.99,0.000000,,2013-02-09 04:22:00,
2013-02-08 20:32:00,29.0,18.0,29.85,NNE,25,6.0,9.0,63,-99.99,,,-99.99,0.000000,,2013-02-09 04:32:00,
2013-02-08 20:40:00,28.0,17.0,29.87,NNE,23,7.0,12.0,63,-99.99,,,-99.99,0.000000,,2013-02-09 04:40:00,
2013-02-08 21:22:00,28.0,17.0,29.87,NNE,23,7.0,12.0,63,-99.99,,,-99.99,0.000000,,2013-02-09 05:22:00,
2013-02-08 21:31:00,28.0,17.0,29.87,NNE,23,7.0,12.0,63,-99.99,,,-99.99,0.000000,,2013-02-09 05:31:00,
2013-02-08 21:40:00,27.0,15.0,29.89,NW,320,4.0,6.0,62,-99.99,,,-99.99,0.000000,,2013-02-09 05:40:00,
2013-02-08 22:21:00,27.0,15.0,29.89,NW,320,4.0,6.0,62,-99.99,,,-99.99,0.000000,,2013-02-09 06:21:00,
2013-02-08 22:31:00,27.0,15.0,29.89,NW,320,4.0,6.0,62,-99.99,,,-99.99,0.000000,,2013-02-09 06:31:00,
2013-02-08 22:40:00,26.0,16.0,29.90,NW,325,3.0,6.0,65,-99.99,,,-99.99,0.000000,,2013-02-09 06:40:00,
2013-02-08 23:21:00,26.0,16.0,29.90,NW,325,3.0,6.0,65,-99.99,,,-99.99,0.000000,,2013-02-09 07:21:00,
2013-02-08 23:31:00,26.0,16.0,29.90,NW,325,3.0,6.0,65,-99.99,,,-99.99,0.000000,,2013-02-09 07:31:00,
2013-02-08 23:40:00,24.0,15.0,29.90,South,190,3.0,5.0,68,-99.99,,,-99.99,0.000000,,2013-02-09 07:40:00,